www.pogodaiklimat.ru
ПОГОДА в Муторае

Архив погоды в Муторае (Эвенкия, Россия)

Время
(UTC), дата
15 17.07
18 17.07
21 17.07
00 18.07
03 18.07
06 18.07
09 18.07
12 18.07
15 18.07
18 18.07
21 18.07
00 19.07
03 19.07
06 19.07
09 19.07
12 19.07
15 19.07
18 19.07
21 19.07
00 20.07
03 20.07
06 20.07
09 20.07
12 20.07
15 20.07
18 20.07
21 20.07
00 21.07
03 21.07
06 21.07
09 21.07
12 21.07
15 21.07
18 21.07
21 21.07
00 22.07
03 22.07
06 22.07
09 22.07
12 22.07
15 22.07
18 22.07
21 22.07
00 23.07
03 23.07
06 23.07
09 23.07
12 23.07
15 23.07
18 23.07
21 23.07
00 24.07
03 24.07
06 24.07
09 24.07
Ветер
(напр.,м/с)
Видим. Явления Облачность Т
(С)
Тd
(С)
f
(%)
Тe
(С)
Тes
(С)
Комфортность P
(гПа)
Po
(гПа)
Тmin
(С)
Tmax
(С)
R
(мм)
R24
(мм)
S
(см)
штиль 0 10 км {гроза, ливн. дождь} 10/6 600 м
[Cb cap Ci fib]
+17.9 +16.4 91 +18 +18 1004.4 966.4
штиль 0 н/о {гроза, ливн. дождь} 6/4 600 м
[Sc Ci fib]
+15.4 +15.4 100 +15 +15 1005.0 966.6
штиль 0 20 км 8/0
[Ci fib]
+15.5 +15.5 100 +15 +15 1005.0 966.8
штиль 0 20 км 6/0
[Ac As]
+16.7 +13.9 84 +17 +19 1005.3 967.0 +15.2 2
штиль 0 20 км 8/0
[Ac trans]
+21.5 +16.6 74 +25 +33 комфорт 1004.0 966.5
СВ 2 20 км 8/6
[Cu med, cong Ci sp]
+24.8 +18.9 70 +30 +34 душно 1002.9 965.8
С 2 20 км 6/4 600 м
[Cb cap Ci fib]
+25.9 +18.7 65 +31 +35 очень душно 1002.0 965.0
СВ 2 20 км 3/3 600 м
[Cu med, cong]
+23.8 +17.9 70 +28 +29 душно 1002.4 965.2 +25.9
штиль 0 20 км 3/0
[Ci fib]
+18.3 +18.0 98 +19 +19 1003.5 965.7
штиль 0 н/о ясно +15.1 +15.1 100 +15 +15 1004.2 965.8
штиль 0 20 км ясно +13.8 +13.8 100 +13 +13 1004.5 966.0
штиль 0 20 км ясно +16.9 +16.9 100 +17 +21 1004.0 965.9 +13.2
штиль 0 20 км 8/8 600 м
[Cu med, cong]
+21.7 +16.3 71 +25 +28 комфорт 1002.8 965.3
В 2 20 км 6/6 600 м
[Cu med, cong]
+24.7 +14.3 52 +27 +32 жарко 1001.5 964.5
В 2 20 км 6/4 600 м
[Cu med, cong Ci sp]
+26.2 +13.5 45 +28 +32 жарко 1000.7 963.8
В 2 20 км 8/0
[Ci fib]
+25.7 +13.5 47 +28 +29 жарко 1000.6 963.7 +26.8
штиль 0 20 км ясно +17.9 +17.2 96 +18 +18 1001.9 964.0
штиль 0 н/о ясно +14.1 +14.1 100 +14 +14 1002.5 964.1
штиль 0 20 км 8/0
[Ci fib]
+12.5 +12.5 100 +12 +12 1002.5 963.8
штиль 0 20 км 10/0
[Ci sp]
+17.8 +16.3 91 +18 +21 1001.4 963.5 +12.5
штиль 0 20 км 10/0
[Ac As]
+23.4 +17.3 69 +29 +33 душно 1000.2 963.1
СВ 2 20 км 10/10 600 м
[Cb cap]
+23.1 +18.9 77 +29 +29 очень душно 999.6 962.6
В 2 20 км в посл. час ливневой дождь 10/10 600 м
[Cb cap]
+21.9 +20.0 89 +28 +28 душно 999.0 961.8
В 2 20 км {ливн. дождь} 10/8 600 м
[Cb cap Ci sp]
+22.7 +20.7 88 +30 +30 очень душно 998.2 961.2 +24.2 0.5
штиль 0 20 км гроза без осадков 10/10 600 м
[Cb cap]
+21.0 +19.1 89 +25 +25 комфорт 998.6 961.2
штиль 0 н/о {гроза, ливн. дождь} 10/10 600 м
[Cb cap]
+18.4 +18.2 99 +19 +19 997.8 960.2
штиль 0 20 км 10/0
[Ci fib]
+17.0 +16.7 98 +17 +17 998.0 960.1
штиль 0 20 км 10/0
[Ci fib]
+19.0 +17.2 89 +20 +24 997.8 960.2 +17.0 0.0
Ю 2 20 км 8/8 600 м
[Cu hum]
+24.4 +16.4 61 +28 +30 душно 996.2 959.4
ЮЗ 2 20 км 10/8 600 м
[Cb cap Ci sp]
+25.3 +18.9 68 +30 +32 душно 995.2 958.6
З 2 4000 м гроза, ливневой дождь 10/10 600 м
[Cb cap]
+20.9 +20.6 98 +27 +27 душно 996.0 958.9
З 2 20 км {гроза, ливн. дождь} 6/4 600 м
[Cb cap Ci sp]
+23.8 +20.9 84 +30 +30 очень душно 995.9 959.1 +26.2 1
штиль 0 20 км 8/8 600 м
[Cb cap]
+19.8 +19.5 98 +23 +23 комфорт 997.7 960.2
штиль 0 20 км 8/8 600 м
[Sc]
+17.8 +17.8 100 +18 +18 999.0 961.2
штиль 0 20 км 10/10 600 м
[Cb cap]
+17.4 +16.9 97 +17 +17 999.7 961.9
штиль 0 20 км 10/10
[Cb cap]
+16.9 +15.5 91 +17 +17 1001.1 963.1 +16.9
СЗ 2 20 км 10/10 600 м
[Cb cap]
+18.8 +17.8 94 +21 +21 комфорт 1003.0 965.2
СВ 2 20 км 8/8 600 м
[Cb cap]
+21.0 +16.7 76 +25 +28 комфорт 1003.9 966.3
В 2 20 км 6/6 600 м
[Cu hum]
+23.4 +17.6 70 +29 +32 душно 1003.5 966.3
СВ 2 20 км 4/0
[Ci fib]
+21.9 +15.6 67 +26 +26 душно 1004.5 967.0 +24.1
СВ 2 20 км 4/0
[Ci fib]
+17.4 +15.4 88 +18 +18 1006.3 968.1
штиль 0 н/о ясно +13.8 +13.8 100 +13 +13 1007.0 968.4
штиль 0 20 км 10/0
[Ci fib]
+12.5 +12.5 100 +12 +12 1007.4 968.5
СВ 2 20 км 10/0
[Ac trans Ci sp]
+16.9 +14.8 87 +17 +19 1006.2 968.0 +12.0
СВ 2 20 км 10/10 600 м
[Cb cap]
+20.0 +15.1 73 +23 +23 комфорт 1004.9 967.1
СВ 2 20 км 10/6 600 м
[Cb cap Ac trans Ci sp]
+22.9 +18.3 75 +29 +31 очень душно 1004.0 966.7
СВ 2 20 км 10/10 600 м
[Cb cap]
+24.2 +18.5 70 +29 +29 душно 1003.2 966.1
штиль 0 20 км 10/10 600 м
[Cb cap]
+21.5 +18.0 80 +26 +26 душно 1003.4 965.9 +25.0
штиль 0 20 км 10/10 600 м
[Cb cap]
+20.0 +16.7 81 +22 +22 комфорт 1003.1 965.4
СЗ 2 н/о 10/10 600 м
[Cb cap]
+17.4 +14.5 83 +18 +18 1002.6 964.6
штиль 0 10 км слаб. ливневой дождь 10/10 600 м
[Cb cap]
+17.0 +16.7 98 +17 +17 1002.1 964.1
штиль 0 10 км слаб. ливневой дождь 10/10 600 м
[Cb cap]
+16.0 +16.0 100 +16 +16 1002.1 963.9 +16.0 8
СЗ 2 20 км {ливн. дождь} 10/10 600 м
[Cb cap]
+17.1 +16.8 98 +17 +17 1000.9 962.9
В 2 20 км {ливн. дождь} 10/10 600 м
[Cb cap]
+19.5 +19.0 97 +23 +23 комфорт 1000.0 962.4
СЗ 2 20 км 10/10 600 м
[Cb cap]
+21.1 +20.3 95 +26 +26 душно 999.6 962.3
Местоположение метеостанции Муторай (Эвенкия, Россия): широта 61.33 долгота 100.40 высота над уровнем моря 332 м.
В архиве по умолчанию представлена погода в Муторае за последнюю неделю. Архивные данные за месяц целиком и за предыдущие месяцы, начиная с января 2011 года, Вы можете получить, выбрав интересующий диапазон дат из раскрывающегося списка и нажав кнопку "Найти!".
*Определитесь, кто Вы:
Внимание! Время в таблицах - всемирное. Для получения местного времени необходимо прибавить поправку, которая равна 7 ч.
Некоторые строки с данными для отдельных станций могут быть выделены курсивом. Это означает, что фактические данные отсутствуют по различным причинам, а приведенные значения являются расчетными модельными данными для данного пункта наблюдений.
Смотрите также архив погоды в соседних городах и на ближайших метеорологических станциях:
Партнеры нашего сайта:      
Пояснения к столбцам:
  • Ветер - указаны скорость ветра в м/с - средняя за 10 мин, порывы в срок и между сроками (в фигурных скобках) и направление, откуда дует ветер: С - северный,
  • СВ - северо-восточный, В - восточный, ЮВ - юго-восточный, Ю - южный, ЮЗ - юго-западный, З - западный, СЗ - северо-западный.
  • Видимость - горизонтальная дальность видимости в метрах или километрах. При видимости от 1 до 10 км при отсутствии осадков обычно наблюдается дымка, при ухудшении видимости до 1 км и менее - туман. В сухую погоду видимость может ухудшаться дымом, пылью или мглою.
  • Явления - указаны атмосферные явления, наблюдавшиеся в срок или в последний час перед сроком; фигурными скобками обозначены явления, наблюдавшиеся между сроками (за 1-3 часа до срока); квадратными скобками обозначены град или гололедные отложения с указанием их диаметра в мм.
  • Облачность - указаны через наклонную черту общая и нижняя облачность в баллах и высота нижней границы облаков в метрах; квадратными скобками обозначены формы облаков: Ci - перистые, Cs - перисто-слоистые, Cc - перисто-кучевые, Ac - высококучевые, As - высокослоистые, Sc - слоисто-кучевые, Ns - слоисто-дождевые, Cu - кучевые, Cb - кучево-дождевые. Подробнее классификацию облаков см. в Атласе облаков (PDF).
  • T - Температура воздуха - температура, измеренная на высоте 2 м над землей.
  • Td - Температура точки росы - температура, при понижении до которой содержащийся в воздухе водяной пар достигнет насыщения.
  • f - Относительная влажность воздуха - влажноcть воздуха, измеренная на высоте 2 м над землей.
  • Te - Эффективная температура - температура, которую ощущает одетый по сезону человек в тени. Характеристика душности погоды. При расчете учитывается влияние влажности воздуха и скорости ветра на теплоощущения человека.
  • Tes - Эффективная температура на солнце - температура, которую ощущает человек, с поправкой на солнечный нагрев. Характеристика знойности погоды. Зависит от высоты солнца над горизонтом, облачности и скорости ветра. Ночью, в пасмурную погоду, а также при ветре 12 м/с и более поправка равна нулю.
  • P - Атмосферное давление - приведенное к уровню моря атмосферное давление.
  • Po - Атмосферное давление - измеренное на уровне метеостанции атмосферное давление.
  • Tmin - Минимальная температура - минимум температуры воздуха на высоте 2 м над землей.
  • Tmax - Максимальная температура - максимум температуры воздуха на высоте 2 м над землей.
  • R - Количество осадков - Количество выпавших осадков за период времени, мм. При наведении курсора мыши на число - период времени, за который выпало указанное количество осадков.
  • R24 - Количество осадков - Количество выпавших осадков за 24 часа, мм.
  • S - Снежный покров - Высота снежного покрова, см. При наведении курсора мыши на число - состояние снежного покрова и степень покрытия местности в баллах.